Weather History for KASE - November, 2014

Change the Weather History Date:

Tuesday, November 11, 2014

  Actual Average Record
Temperature  
Mean Temperature 28 °F 31 °F  
Max Temperature 44 °F 44 °F 66 °F (1980)
Min Temperature 11 °F 19 °F 7 °F (1998)
Degree Days  
Heating Degree Days 37 34  
Month to date heating degree days 288 344  
Since 1 July heating degree days 1234 1599  
Cooling Degree Days 0 0  
Month to date cooling degree days 0 0  
Year to date cooling degree days 56 39  
Moisture  
Dew Point 16 °F    
Average Humidity 65    
Maximum Humidity 96    
Minimum Humidity 33    
Precipitation  
Precipitation T in 0.05 in 0.36 in (1992)
Month to date precipitation 0.49 0.57  
Year to date precipitation 12.80 15.32  
Sea Level Pressure  
Sea Level Pressure 29.85 in    
Wind  
Wind Speed 5 mph (SSW)    
Max Wind Speed 13 mph    
Max Gust Speed 16 mph    
Visibility 10 miles    
Events Snow    
T = Trace of Precipitation, MM = Missing Value Source: NWS Daily Summary

Daily Weather History Graph

Daily Weather History Graph

Search for Another Location

Airport or City:

Trip Planner

Search our weather history database for the weather conditions in past years. The results will help you decide how hot, cold, wet, or windy it might be!

Date:

Astronomy

Nov. 11, 2014 Rise Set
Actual Time 6:46 AM MST 4:56 PM MST
Civil Twilight 6:18 AM MST 5:24 PM MST
Nautical Twilight 5:45 AM MST 5:56 PM MST
Astronomical Twilight 5:14 AM MST 6:28 PM MST
Moon 9:22 PM MST (11/11) 10:55 AM MST (11/11)
Length of Visible Light 11h 06m
Length of Day
10h 09m
Waning Gibbous, 76% of the Moon is Illuminated
Nov 11
Waning Gibbous
Nov 14
Last Quarter
Nov 22
New
Nov 29
First Quarter
Dec 6
Full

Hourly Weather History & Observations

Time (MST) Temp. Windchill Dew Point Humidity Pressure Visibility Wind Dir Wind Speed Gust Speed Precip Events Conditions
12:53 AM 15.1 °F 7.7 °F 12.0 °F 88% 29.85 in 10.0 mi SSW 4.6 mph - N/A   Clear
1:20 AM 16.0 °F 10.4 °F 12.0 °F 84% 29.91 in 10.0 mi South 3.5 mph - N/A   Mostly Cloudy
1:53 AM 19.9 °F 13.4 °F 16.0 °F 85% 29.88 in 10.0 mi South 4.6 mph - N/A   Overcast
2:13 AM 21.0 °F 13.4 °F 18.0 °F 88% 29.91 in 10.0 mi South 5.8 mph - N/A   Overcast
2:39 AM 19.0 °F - 16.0 °F 88% 29.90 in 10.0 mi Calm Calm - N/A   Scattered Clouds
2:53 AM 14.0 °F - 12.9 °F 95% 29.94 in 10.0 mi Calm Calm - N/A   Clear
3:19 AM 16.0 °F 6.3 °F 12.9 °F 88% 29.90 in 10.0 mi SSW 6.9 mph - N/A   Mostly Cloudy
3:27 AM 18.0 °F 8.7 °F 14.0 °F 84% 29.90 in 10.0 mi South 6.9 mph - N/A   Scattered Clouds
3:53 AM 15.1 °F 4.2 °F 12.0 °F 88% 29.93 in 10.0 mi SSW 8.1 mph - N/A   Clear
4:53 AM 12.0 °F 1.5 °F 9.0 °F 88% 29.93 in 10.0 mi SSW 6.9 mph - N/A   Clear
5:53 AM 12.9 °F 3.8 °F 9.0 °F 84% 29.94 in 10.0 mi South 5.8 mph - N/A   Clear
6:53 AM 12.9 °F 3.8 °F 8.1 °F 81% 29.94 in 10.0 mi South 5.8 mph - N/A   Clear
7:53 AM 18.0 °F 9.8 °F 12.0 °F 78% 29.92 in 10.0 mi South 5.8 mph - N/A   Clear
8:53 AM 23.0 °F 17.0 °F 15.1 °F 72% 29.89 in 10.0 mi South 4.6 mph - N/A   Clear
9:53 AM 27.0 °F 23.0 °F 18.0 °F 69% 29.86 in 10.0 mi South 3.5 mph - N/A   Clear
10:53 AM 34.0 °F - 14.0 °F 44% 29.82 in 10.0 mi Calm Calm - N/A   Clear
11:53 AM 36.0 °F 30.3 °F 17.1 °F 46% 29.82 in 10.0 mi Variable 6.9 mph - N/A   Clear
12:53 PM 39.0 °F 33.4 °F 21.9 °F 50% 29.80 in 10.0 mi NNE 8.1 mph - N/A   Clear
1:53 PM 42.1 °F 36.6 °F 21.0 °F 43% 29.74 in 10.0 mi North 9.2 mph - N/A   Clear
2:53 PM 44.1 °F 38.1 °F 18.0 °F 35% 29.76 in 10.0 mi NNW 11.5 mph - N/A   Clear
3:53 PM 41.0 °F 35.8 °F 17.1 °F 38% 29.77 in 10.0 mi NNW 8.1 mph - N/A   Clear
4:53 PM 37.9 °F 34.4 °F 16.0 °F 41% 29.81 in 10.0 mi NNW 4.6 mph - N/A   Clear
5:53 PM 36.0 °F 29.6 °F 17.1 °F 46% 29.81 in 10.0 mi NNW 8.1 mph - N/A   Clear
6:53 PM 36.0 °F - 16.0 °F 44% 29.82 in 10.0 mi Calm Calm - N/A   Partly Cloudy
7:53 PM 33.1 °F 26.1 °F 19.9 °F 59% 29.82 in 10.0 mi SW 8.1 mph - N/A   Mostly Cloudy
8:53 PM 32.0 °F - 19.9 °F 61% 29.81 in 10.0 mi Calm Calm - N/A   Mostly Cloudy
9:53 PM 33.1 °F 30.0 °F 21.9 °F 64% 29.79 in 10.0 mi South 3.5 mph - N/A   Scattered Clouds
10:53 PM 32.0 °F 27.5 °F 23.0 °F 69% 29.76 in 10.0 mi SSW 4.6 mph - N/A   Overcast
11:53 PM 33.1 °F - 21.9 °F 64% 29.73 in 10.0 mi Calm Calm - 0.00 in Snow Light Snow